{"data":{"norad_id":65897,"epoch":"2026-09-20T03:57:37.988928Z","epoch_age_seconds":135055,"freshness":"FRESH","line1":"1 65897U 25224R   26263.16502302  .00016041  00000+0  48487-3 0  9993","line2":"2 65897  53.1599 183.4653 0001283  69.7284 290.3857 15.34401221 54667","mean_motion":15.34401221,"eccentricity":0.0001283,"inclination_deg":53.1599,"raan_deg":183.4653,"arg_perigee_deg":69.7284,"mean_anomaly_deg":290.3857,"bstar":0.00048487,"rev_number":5466,"period_min":93.847683401967,"perigee_km":461.82193180299,"apogee_km":463.57729047741,"semimajor_km":6840.8366111402,"source":"CELESTRAK","updated_at":"2026-09-21T09:00:35.759337Z"}}